Wind_Speed
8 8 8 7 7 7 7 6 6 7 7 6 6 6 6 6 6 5 5 6 7 7 7 7 7 6 6 6 6 6 5 5 5 5 6 5 5 5 5 5 5 5 5 5
9 10 9 9 8 8 7 7 8 8 8 8 7 7 7 7 7 6 6 6 7 8 7 7 7 7 6 6 7 6 6 6 6 6 7 6 5 5 5 5 4 5 5 5
11 11 11 10 9 9 8 8 9 9 9 8 7 7 7 8 7 7 7 8 8 8 8 8 7 7 7 8 8 7 6 6 6 7 7 7 6 6 6 5 5 5 5 5
11 11 11 11 10 10 9 9 10 9 9 9 8 8 8 8 8 8 9 9 9 8 8 8 8 8 8 8 8 8 7 7 8 8 7 7 6 6 5 5 5 5 5 5
12 11 12 12 11 11 10 10 10 10 10 9 9 9 9 9 9 9 9 10 9 9 9 9 9 9 9 8 8 8 7 8 8 8 8 7 7 7 6 6 5 5 5 5
13 13 13 13 12 12 11 11 11 10 11 11 10 10 10 10 10 10 10 10 10 9 9 9 9 9 9 9 9 8 8 8 8 8 7 7 7 7 7 7 6 6 6 5
15 15 14 14 14 13 13 12 12 11 11 12 11 11 11 11 10 11 11 11 10 10 10 9 9 9 9 10 10 9 8 8 8 8 8 8 8 8 8 8 8 7 7 7
16 16 16 15 15 15 15 14 14 14 13 13 12 12 12 11 11 11 12 11 11 10 11 10 10 10 10 10 10 9 9 9 8 9 9 9 9 9 9 9 9 8 8 8
17 17 17 16 16 16 16 15 16 16 15 14 14 13 13 13 12 12 12 12 12 11 11 11 11 10 10 10 10 10 9 9 9 10 9 9 9 9 9 10 9 9 9 9
17 17 17 17 17 17 17 16 17 17 16 16 15 14 14 13 14 13 13 13 13 13 12 12 11 11 11 11 11 11 10 10 10 10 10 10 10 10 9 9 9 9 9 9
17 18 17 17 18 17 17 17 17 18 18 18 17 16 15 15 14 14 13 13 14 14 14 13 12 12 12 11 11 11 11 11 11 10 10 10 10 10 10 10 10 10 9 10
19 19 19 19 19 19 19 19 19 19 19 20 20 18 17 17 16 15 15 15 15 15 14 14 13 13 13 12 12 12 12 12 12 11 12 11 11 11 11 11 11 11 10 11
20 20 20 20 20 20 20 20 20 21 21 21 21 21 18 18 17 16 16 16 16 15 15 15 15 14 14 14 13 13 13 13 13 13 13 13 12 13 12 13 12 13 12 12
22 22 21 21 21 21 21 21 21 21 21 22 21 21 20 18 18 17 17 16 16 15 15 15 15 15 15 15 14 14 15 15 15 15 15 15 15 14 14 14 14 14 14 14
22 22 22 22 22 22 21 21 21 22 22 23 22 22 20 19 19 18 18 17 17 16 16 16 16 16 16 16 16 16 16 17 17 17 16 17 17 17 17 16 16 15 15 15
23 23 23 23 23 22 22 21 22 23 23 23 23 22 21 20 20 19 19 18 18 17 17 17 17 17 17 17 17 17 18 18 18 18 18 19 19 19 19 18 17 17 16 16
24 24 23 23 23 24 23 22 23 23 23 23 23 22 21 21 20 20 19 19 19 18 18 18 18 18 18 18 17 18 18 19 20 19 19 19 20 21 20 20 19 19 18 18
25 25 25 24 24 25 23 23 23 23 23 23 22 21 21 21 21 20 20 20 20 20 20 19 19 19 19 19 19 19 19 19 20 20 20 20 21 21 21 21 21 20 20 20
25 25 26 26 26 25 24 23 23 24 24 23 22 22 22 22 21 21 21 21 21 21 21 21 21 21 20 20 20 20 20 21 21 21 21 22 22 21 21 21 21 21 21 21
26 26 26 26 27 27 25 24 24 24 24 23 23 22 22 22 22 21 22 22 22 22 23 23 23 22 22 22 22 22 22 22 22 22 22 22 22 22 22 22 22 22 22 23
26 27 26 26 27 27 25 24 24 24 24 24 23 23 22 22 22 22 22 23 23 23 24 24 24 23 23 23 23 23 23 23 23 23 23 23 23 23 23 23 23 23 23 23
27 27 27 27 28 27 26 26 26 25 24 24 24 23 23 23 23 23 23 23 24 23 24 25 25 24 24 24 24 24 24 24 24 24 24 23 24 24 24 23 23 23 23 23
27 27 26 27 28 27 26 26 26 25 25 24 24 24 24 23 23 24 24 24 24 24 24 25 25 25 25 25 25 25 25 25 25 24 24 24 25 25 25 24 24 24 24 24
28 27 28 27 27 26 26 27 27 26 26 25 25 25 25 24 24 24 25 25 25 25 25 25 25 26 25 25 26 26 26 26 26 25 25 25 26 25 25 25 24 25 25 25
29 28 28 28 27 28 28 28 28 27 27 26 26 26 25 25 25 25 25 25 26 26 26 26 26 27 26 26 26 26 27 27 27 26 26 26 26 26 26 26 25 25 25 26
29 29 29 28 28 28 28 27 27 26 27 26 27 26 27 26 25 26 26 26 26 26 27 27 28 28 28 28 27 27 27 27 27 27 27 27 27 27 27 27 26 26 25 25
Wind_Direction
256 258 262 264 266 267 268 273 281 288 293 297 300 302 304 307 309 310 313 313 311 315 317 315 315 311 305 303 302 309 313 318 325 328 326 318 315 312 306 301 301 298 294 287
257 258 260 264 267 267 267 274 279 283 288 291 298 300 299 298 301 304 304 308 307 307 309 309 310 310 305 300 300 301 306 310 315 320 320 315 311 306 304 301 307 304 298 289
256 259 261 264 264 266 270 275 278 286 290 292 295 297 296 295 296 299 302 303 306 307 301 303 304 305 305 303 303 305 305 304 308 312 313 312 307 303 302 298 302 308 302 286
257 259 261 263 263 266 269 274 276 281 287 291 294 292 291 292 297 298 300 301 303 303 301 301 301 302 302 302 302 302 305 303 307 311 308 312 307 303 305 306 307 305 300 288
257 258 261 263 265 267 269 272 273 276 281 286 289 287 284 288 292 293 295 296 296 297 298 298 299 300 301 298 297 296 299 300 303 306 306 308 310 305 303 303 306 308 308 303
258 259 259 261 263 265 268 269 270 272 276 279 282 283 283 285 288 290 291 292 291 290 292 292 293 295 295 295 296 295 293 296 301 306 307 308 311 312 308 301 302 304 302 304
259 259 259 260 261 263 265 268 271 274 274 277 279 278 279 281 284 286 288 288 286 286 287 289 288 289 290 290 292 292 291 293 297 299 302 304 305 305 306 302 298 297 295 295
261 260 259 259 259 262 263 265 268 272 274 276 276 276 277 278 281 283 285 285 284 285 286 286 284 284 285 286 287 287 288 290 294 297 299 301 301 300 297 296 295 290 289 291
262 262 260 259 259 260 262 263 265 268 270 272 273 274 274 276 277 281 282 282 283 283 285 285 282 281 281 281 282 283 285 288 290 292 293 295 300 301 296 292 289 286 286 289
262 263 262 260 259 259 261 262 263 266 269 271 272 272 274 274 276 279 281 281 280 280 282 283 281 278 278 278 279 278 282 285 286 286 289 292 296 299 299 295 290 287 288 290
261 262 263 260 259 260 261 261 261 263 266 268 270 270 270 271 274 278 279 280 278 278 280 282 279 277 277 278 279 280 281 282 283 285 287 291 293 294 292 294 291 286 286 288
261 261 262 261 260 259 261 261 261 262 264 264 266 268 267 269 272 274 275 275 275 275 278 279 276 276 277 278 279 281 278 277 279 285 285 287 289 290 290 291 291 287 285 286
260 261 263 263 261 259 260 260 261 261 261 262 265 267 266 267 270 271 272 273 274 274 275 275 274 275 277 278 279 279 277 277 280 284 285 286 288 288 289 290 291 286 283 285
259 261 261 262 263 262 261 259 259 259 260 262 264 266 266 267 269 269 270 271 271 274 274 273 273 273 276 278 278 278 276 277 279 281 283 285 286 287 287 287 287 286 284 283
258 260 260 260 262 262 263 263 262 261 261 263 264 265 265 266 267 267 267 268 269 270 271 271 271 273 275 276 276 276 277 277 280 280 281 285 285 284 284 285 284 284 286 283
257 258 258 259 261 262 262 262 263 263 263 263 263 263 263 265 267 267 267 267 268 267 267 269 269 270 274 275 277 277 277 277 280 279 281 282 283 283 282 283 282 283 284 283
257 257 258 259 260 262 263 265 266 265 263 264 264 263 263 265 265 265 265 266 266 265 265 266 268 268 270 274 276 277 278 278 279 280 281 283 284 283 282 281 281 281 282 282
257 258 258 260 261 263 266 265 266 265 263 264 264 263 262 264 263 262 264 265 265 264 264 266 268 269 270 273 275 277 279 280 281 281 282 284 284 283 282 281 280 280 280 280
256 258 259 261 264 266 266 266 265 264 263 263 264 261 261 262 261 262 263 265 265 264 265 268 269 270 271 271 273 275 278 280 280 281 281 283 285 283 281 280 278 278 279 279
256 257 259 262 265 267 267 267 265 264 263 262 262 261 261 262 261 262 263 264 265 264 265 268 269 269 270 270 272 275 277 279 280 280 282 283 284 284 282 280 278 277 278 278
256 257 260 263 266 267 267 267 266 264 265 264 262 262 262 263 262 262 263 265 266 267 267 268 268 268 270 271 273 275 277 278 279 280 282 283 284 284 283 281 279 279 279 278
257 258 260 261 263 266 267 267 266 265 266 265 263 262 262 262 262 262 262 264 265 266 268 269 269 269 270 272 273 275 277 278 278 280 282 283 284 284 283 282 281 279 280 280
256 258 260 261 263 265 266 267 266 265 266 264 262 261 261 261 261 261 262 264 265 266 268 269 269 271 271 273 274 276 277 278 279 280 281 282 283 283 283 283 281 279 279 280
255 257 259 262 264 265 266 266 265 266 266 264 262 261 262 261 260 262 263 264 266 267 268 269 270 271 272 273 275 276 276 277 278 279 280 282 282 281 282 283 283 281 279 278
254 256 258 261 264 266 267 265 266 266 266 265 263 262 262 260 259 261 262 265 267 267 268 270 271 271 274 275 275 276 275 274 275 276 279 281 281 280 279 282 284 283 281 279
253 255 256 258 261 265 267 265 265 266 267 268 267 265 262 260 259 259 261 263 266 268 268 270 271 271 272 273 273 274 274 273 274 275 277 278 280 280 280 280 282 282 281 279
Height
5883 5885 5884 5884 5884 5885 5885 5885 5884 5884 5883 5882 5882 5881 5880 5879 5878 5878 5877 5876 5874 5873 5872 5871 5870 5869 5868 5867 5866 5865 5864 5863 5862 5861 5860 5858 5857 5856 5855 5854 5853 5852 5851 5850
5882 5882 5882 5882 5882 5882 5883 5883 5883 5882 5881 5881 5880 5880 5879 5878 5877 5876 5876 5875 5873 5872 5871 5870 5869 5868 5867 5866 5865 5864 5863 5862 5861 5860 5859 5857 5856 5855 5854 5853 5852 5851 5849 5849
5879 5880 5879 5880 5880 5880 5880 5881 5880 5880 5880 5879 5879 5879 5878 5877 5876 5875 5874 5873 5872 5871 5870 5869 5868 5867 5866 5865 5864 5863 5862 5861 5860 5859 5858 5856 5855 5854 5853 5851 5851 5849 5848 5847
5876 5877 5877 5877 5877 5878 5878 5878 5878 5878 5878 5877 5878 5877 5876 5875 5874 5873 5872 5871 5871 5870 5868 5867 5866 5865 5864 5863 5862 5861 5860 5859 5859 5857 5856 5855 5854 5853 5851 5850 5849 5848 5847 5846
5873 5874 5874 5874 5875 5875 5875 5875 5876 5875 5875 5876 5875 5875 5875 5873 5872 5871 5871 5869 5868 5868 5867 5865 5864 5863 5862 5861 5860 5860 5859 5858 5857 5856 5855 5853 5852 5851 5850 5849 5848 5847 5846 5845
5870 5870 5871 5871 5871 5872 5872 5873 5873 5873 5873 5873 5873 5873 5873 5871 5870 5869 5868 5867 5866 5865 5865 5863 5862 5861 5860 5859 5859 5858 5857 5856 5855 5854 5853 5851 5850 5849 5848 5847 5846 5845 5844 5844
5866 5867 5867 5867 5868 5869 5869 5870 5871 5870 5870 5871 5870 5869 5870 5868 5867 5867 5866 5865 5864 5863 5862 5861 5860 5859 5858 5857 5856 5856 5855 5854 5853 5852 5851 5849 5848 5847 5846 5845 5844 5844 5843 5842
5862 5863 5863 5864 5864 5865 5865 5867 5868 5868 5867 5867 5867 5866 5867 5865 5864 5864 5863 5862 5861 5860 5859 5858 5858 5857 5856 5855 5854 5853 5852 5852 5851 5850 5849 5848 5846 5845 5844 5843 5842 5842 5841 5840
5857 5858 5859 5859 5860 5861 5861 5862 5863 5863 5863 5863 5863 5863 5863 5862 5861 5860 5859 5859 5858 5857 5856 5855 5854 5854 5853 5852 5852 5851 5850 5849 5848 5847 5846 5845 5844 5843 5842 5841 5840 5839 5838 5838
5853 5854 5854 5854 5855 5856 5857 5857 5858 5858 5858 5859 5859 5859 5859 5858 5858 5857 5856 5855 5854 5854 5853 5852 5851 5850 5850 5849 5849 5848 5847 5846 5845 5844 5843 5842 5842 5840 5839 5838 5837 5836 5835 5835
5848 5849 5850 5850 5850 5851 5852 5852 5852 5853 5854 5854 5854 5857 5855 5854 5854 5853 5853 5852 5851 5850 5849 5849 5848 5847 5847 5846 5846 5845 5844 5843 5842 5841 5840 5840 5839 5838 5836 5835 5834 5833 5832 5832
5842 5843 5844 5845 5845 5845 5846 5847 5847 5848 5848 5848 5849 5853 5850 5849 5849 5849 5849 5848 5847 5847 5846 5845 5845 5844 5844 5843 5842 5841 5841 5840 5839 5838 5837 5837 5836 5834 5833 5832 5831 5830 5829 5828
5837 5838 5838 5839 5841 5840 5840 5841 5841 5842 5842 5843 5844 5847 5845 5844 5844 5844 5844 5844 5843 5843 5842 5842 5841 5841 5840 5840 5839 5838 5837 5836 5836 5835 5834 5833 5832 5831 5830 5829 5827 5826 5825 5824
5831 5831 5833 5834 5833 5834 5834 5835 5835 5835 5836 5837 5838 5839 5839 5839 5839 5839 5839 5839 5839 5838 5838 5838 5837 5837 5836 5836 5835 5834 5833 5833 5832 5831 5830 5829 5828 5827 5826 5825 5824 5823 5822 5820
5824 5825 5826 5826 5827 5827 5828 5828 5829 5829 5830 5830 5832 5832 5833 5833 5833 5834 5834 5834 5834 5834 5833 5833 5833 5832 5832 5831 5831 5830 5829 5828 5827 5827 5826 5825 5824 5823 5822 5820 5819 5818 5817 5816
5818 5819 5819 5820 5820 5821 5821 5822 5822 5823 5823 5824 5825 5826 5827 5827 5827 5828 5828 5828 5828 5828 5828 5828 5828 5827 5827 5826 5826 5825 5824 5824 5823 5822 5821 5820 5819 5817 5816 5815 5814 5813 5812 5811
5811 5812 5813 5814 5814 5814 5815 5816 5816 5816 5817 5818 5818 5820 5820 5821 5821 5822 5822 5822 5823 5823 5823 5823 5822 5822 5822 5821 5821 5820 5819 5818 5817 5816 5815 5814 5813 5812 5810 5809 5808 5807 5806 5806
5804 5805 5806 5806 5808 5807 5811 5809 5809 5809 5810 5811 5811 5812 5813 5814 5815 5815 5815 5816 5816 5817 5817 5817 5817 5816 5816 5816 5815 5814 5814 5813 5811 5810 5809 5808 5807 5805 5804 5803 5802 5801 5800 5799
5797 5798 5798 5799 5799 5800 5803 5802 5802 5802 5803 5804 5804 5805 5806 5807 5808 5809 5809 5809 5810 5810 5810 5810 5810 5810 5810 5809 5809 5809 5808 5807 5806 5804 5803 5801 5800 5798 5797 5796 5795 5794 5793 5793
5790 5791 5792 5792 5792 5793 5796 5795 5794 5796 5796 5797 5797 5798 5799 5800 5801 5802 5802 5802 5802 5803 5803 5803 5803 5803 5803 5803 5803 5802 5801 5800 5799 5798 5797 5795 5793 5791 5790 5788 5788 5787 5786 5785
5782 5783 5784 5784 5784 5785 5787 5787 5787 5789 5789 5789 5789 5790 5792 5793 5794 5795 5795 5795 5795 5795 5796 5796 5796 5796 5796 5796 5795 5795 5794 5793 5792 5791 5789 5788 5786 5784 5783 5782 5781 5780 5779 5778
5774 5775 5776 5776 5776 5779 5778 5779 5780 5781 5781 5781 5782 5783 5784 5785 5786 5787 5787 5788 5788 5788 5788 5788 5788 5788 5788 5788 5788 5787 5787 5786 5784 5783 5782 5781 5779 5778 5776 5775 5774 5773 5772 5771
5766 5768 5768 5769 5771 5771 5770 5770 5771 5772 5773 5773 5774 5775 5776 5777 5778 5779 5779 5780 5780 5780 5780 5780 5780 5781 5780 5780 5780 5779 5779 5778 5777 5776 5775 5773 5772 5770 5769 5767 5766 5765 5764 5763
5758 5759 5760 5760 5762 5762 5762 5762 5763 5764 5764 5765 5766 5767 5767 5768 5769 5770 5771 5772 5772 5772 5772 5772 5772 5772 5772 5772 5771 5771 5770 5769 5769 5768 5767 5765 5764 5763 5761 5760 5759 5757 5756 5755
5749 5750 5751 5752 5753 5753 5754 5754 5755 5755 5756 5757 5757 5758 5759 5759 5761 5761 5762 5763 5764 5764 5764 5764 5764 5764 5764 5763 5763 5762 5761 5761 5760 5760 5758 5757 5756 5755 5754 5753 5751 5749 5748 5747
5740 5742 5743 5744 5745 5745 5746 5746 5746 5747 5748 5748 5748 5749 5750 5750 5752 5753 5753 5754 5755 5755 5755 5755 5755 5755 5755 5754 5754 5753 5753 5752 5752 5751 5750 5749 5748 5747 5745 5744 5743 5741 5740 5739